Weather in Sliven

Bulgaria     42°39′50″N   26°20′21″E
temp.,
°C
wind,
m/s
gust,
m/s
humid.,
%
clouds,
%
prec.,
mm/h
press.,
hPa
HPBL,
m
17 may, tue
tue1700:00+13nnw11754 0.0 101911
03:00+12wnw11785 0.0 101911
06:00+12nw11755 0.0 101811
09:00+18sw11645 0.0 1018242
12:00+22s324814 0.0 10171435
15:00+22ssw444946 0.0 10161372
18:00+21ssw345949 0.0 10141051
21:00+16sw12745 0.0 101431
18 may, wed
wed1800:00+15w128356 0.0 101321
03:00+13nnw489294 0.0 1014332
06:00+13nnw3790100 0.1 1012251
09:00+17wnw5117595 0.1 10131138
12:00+10nne3793100 2.3 1018634
15:00+7n4789100 3.4 1021529
18:00+7n81578100 0.3 10231041
21:00+6nnw34670 0.3 102679
19 may, thu
thu1900:00+6n412715 0.0 1029614
03:00+5n413785 0.0 1029653
06:00+4nnw37836 0.0 1030209
09:00+10nnw48626 0.0 10301074
12:00+14n57505 0.0 10291456
15:00+15n56454 0.0 10271853
18:00+15n56485 0.0 10271660
21:00+9n33753 0.0 102839
20 may, fri
fri2000:00+8nnw22750 0.0 102920
03:00+8nnw22703 0.0 102815
06:00+8nnw11690 0.0 102711
09:00+15sw11542 0.0 1027537
12:00+19ssw13455 0.0 10261211
15:00+21ssw22445 0.0 10241448
18:00+20ssw22495 0.0 1023975
21:00+13wsw118114 0.0 102311
21 may, sat
sat2100:00+11wnw1184100 0.0 102211
03:00+11w11835 0.0 102011
06:00+10w22788 0.0 101911
09:00+17sw225616 0.0 1018241
12:00+22sw34435 0.0 10161005
15:00+24wsw35443 0.0 10151351
18:00+23w2551100 0.0 1014900
21:00+17wnw227362 0.0 101414